Flag for Germany Weather for the Past 2 Weeks in Pfaffenhofen an der Ilm, Bavaria, Germany

Now
43 °F

Broken clouds.


Feels Like: 38 °F
Forecast: 29 / 41 °F
Wind: 8 mph from West

Location: Ingolstadt Airport

Current Time: Feb 11, 2016 at 4:27:25 PM

Latest Report: Feb 11, 2016 at 3:20 PM


Visibility: N/A

Pressure: 29.71 "Hg

Humidity: 61%

Dew point: 30 °F

Location of Pfaffenhofen an der IlmLocation

Historic Weather in Pfaffenhofen an der Ilm — Graph

°F

Pfaffenhofen an der Ilm Temperature Yesterday

Maximum temperature yesterday: 41 °F (at 1:20 AM)
Minimum temperature yesterday: 32 °F (at 5:20 AM)
Average temperature yesterday: 37 °F

High & Low Weather Summary for the Past Weeks

 TemperatureHumidityPressure
High57 °F (Feb 8, 2:20 PM)100% (Jan 28, 5:20 PM)30.45 "Hg (Jan 28, 5:20 PM)
Low28 °F (Jan 30, 7:20 AM)44% (Feb 8, 2:20 PM)29.24 "Hg (Feb 9, 6:20 PM)
Average42 °F82%29.99 "Hg
* Reported Jan 27 2:20 PM — Feb 11 2:20 PM, Pfaffenhofen an der Ilm, Weather by CustomWeather, © 2016

Note: Actual official high and low records may vary slightly from our data, if they occured in-between our weather recording intervals... More about our weather records

Advertising

Pfaffenhofen an der Ilm Weather History for the Previous 24 Hours

 ConditionsComfort  
Time TempWeatherWind HumidityBarometerVisibility
2:20 PM
Thu, Feb 11
43 °FBroken clouds.14 mph61%29.74 "HgN/A
1:20 PM41 °FPartly sunny.13 mph70%29.74 "HgN/A
12:20 PM41 °FBroken clouds.17 mph70%29.74 "HgN/A
11:20 AM39 °FPartly sunny.16 mph75%29.74 "HgN/A
10:20 AM37 °FSnow showers. Partly sunny.9 mph81%29.74 "Hg2 mi
9:20 AM34 °FLight snow. Partly sunny.5 mph93%29.74 "Hg5 mi
8:54 AM34 °FSnow showers. Partly sunny.8 mph93%29.74 "Hg1 mi
8:20 AM34 °FLight snow. Broken clouds.8 mph93%29.74 "Hg6 mi
7:20 AM34 °FSnow showers. Passing clouds.12 mph87%29.71 "Hg1 mi
6:20 AM36 °FLight snow. Passing clouds.13 mph81%29.68 "HgN/A
5:20 AM36 °FLight snow. Passing clouds.15 mph81%29.68 "Hg6 mi
4:20 AM37 °FChilly.13 mph75%29.65 "HgN/A
3:20 AM37 °FChilly.15 mph75%29.65 "HgN/A
2:20 AM37 °FChilly.14 mph75%29.65 "HgN/A
1:20 AM36 °FChilly.14 mph87%29.62 "HgN/A
12:20 AM37 °FChilly.23 mph70%29.62 "HgN/A
11:20 PM
Wed, Feb 10
37 °FChilly.20 mph75%29.59 "Hg6 mi
10:20 PM37 °FChilly.18 mph75%29.59 "HgN/A
9:20 PM39 °FPassing clouds.21 mph70%29.56 "HgN/A
8:20 PM37 °FPassing clouds.12 mph81%29.56 "HgN/A
7:20 PM37 °FSnow flurries. Partly cloudy.23 mph75%29.53 "HgN/A
6:20 PM36 °FSnow flurries. Partly cloudy.16 mph87%29.50 "HgN/A
5:20 PM39 °FPartly sunny.18 mph70%29.47 "HgN/A
4:20 PM39 °FBroken clouds.17 mph70%29.47 "HgN/A
Weather by CustomWeather, © 2016

See weather overviewHow to use our weather pages